Home > Weather > Hinckley > Past weeks

Flag for United Kingdom Past Weather in Hinckley, England, United Kingdom — Yesterday and Last 2 Weeks

Now
58 °F

Cool.


Feels Like: 56 °F
Forecast: 47 / 61 °F
Wind: 7 mph from Southwest

Location: Church Lawford

Current Time: Jul 1, 2016 at 5:25:19 AM

Latest Report: Jul 1, 2016 at 3:00 AM


Visibility: 31 mi

Pressure: 29.71 "Hg

Humidity: 92%

Dew Point: 55 °F

Location of HinckleyLocation

Past Weather in Hinckley — Graph

°F

Hinckley Temperature Yesterday

Maximum temperature yesterday: 65 °F (at 2:00 PM)
Minimum temperature yesterday: 53 °F (at 5:00 AM)
Average temperature yesterday: 59 °F

High & Low Weather Summary for the Past Weeks

 TemperatureHumidityPressure
High70 °F (Jun 23, 2:00 PM)100% (Jun 23, 7:00 AM)30.23 "Hg (Jun 23, 7:00 AM)
Low46 °F (Jun 28, 5:00 AM)50% (Jun 27, 4:00 PM)29.50 "Hg (Jun 16, 3:00 AM)
Average59 °F84%29.93 "Hg
* Reported Jun 16 3:00 AM — Jul 1 3:00 AM, Hinckley, Weather by CustomWeather, © 2016

Note: Actual official high and low records may vary slightly from our data, if they occured in-between our weather recording intervals... More about our weather records

Advertising

Hinckley Weather History for the Previous 24 Hours

Scroll right to see more
 ConditionsComfort  
Time TempWeatherWind HumidityBarometerVisibility
3:00 AM
Fri, Jul 1
58 °FCool.7 mph92%29.71 "Hg31 mi
2:00 AM58 °FCool.7 mph93%29.71 "Hg28 mi
1:00 AM58 °FCool.8 mph92%29.71 "Hg19 mi
12:00 AM58 °FCool.9 mph92%29.71 "Hg22 mi
11:00 PM
Thu, Jun 30
59 °FCool.7 mph88%29.71 "Hg22 mi
10:00 PM59 °FCool.5 mph85%29.72 "Hg22 mi
9:00 PM59 °FCool.8 mph83%29.73 "Hg14 mi
8:00 PM60 °FCool.7 mph75%29.74 "Hg28 mi
7:00 PM61 °FCool.6 mph77%29.75 "Hg17 mi
6:00 PM62 °FCool.7 mph66%29.76 "Hg25 mi
5:00 PM63 °FMild.6 mph61%29.77 "Hg22 mi
4:00 PM63 °FMild.8 mph63%29.78 "Hg22 mi
3:00 PM64 °FMild.10 mph61%29.78 "Hg19 mi
2:00 PM65 °FMild.9 mph58%29.77 "Hg28 mi
12:00 PM64 °FMild.10 mph62%29.78 "Hg16 mi
11:00 AM64 °FMild.8 mph65%29.78 "Hg16 mi
9:00 AM58 °FCool.6 mph83%29.77 "Hg13 mi
8:00 AM57 °FCool.7 mph89%29.77 "Hg19 mi
7:00 AM53 °FCool.5 mph97%29.76 "Hg7 mi
6:00 AM53 °FFog.5 mph99%29.75 "Hg5 mi
5:00 AM53 °FFog.5 mph98%29.74 "Hg3 mi
Weather by CustomWeather, © 2016

See weather overviewHow to use our weather pages